Location: Allentsteig
(48.6833°N, 15.3167°E)
Time: 08:42:46
(UTC+00:00)

Cosmos 2298 Rocket - Pass Details

Date: 21 January 2021
Orbit: 775 x 784 km, 74.0° (Epoch: 24 February)

Event Time Altitude Azimuth Distance (km) Brightness Sun altitude
Exits shadow 04:54:18 - 340° (NNW) 2,633 6.5 -17.3°
Reaches altitude 10° 04:55:02 10° 342° (NNW) 2,353 6.2 -17.2°
Maximum altitude 05:00:22 65° 64° (ENE) 861 4.4 -16.3°
Drops below altitude 10° 05:05:39 10° 147° (SSE) 2,338 7.2 -15.5°
Sets 05:08:03 0° 150° (SSE) 3,261 7.9 -15.1°
